Theta_e
327 332 336 337 339 339 340 340 340 341 341 341 341 341 341 340 339 339 337 336 334 333 333 333 332 333 335 336 334 333 329 332
326 330 331 335 337 337 337 337 338 337 338 338 338 339 339 338 337 336 334 333 333 333 333 332 333 334 336 336 333 335 334 334
325 327 330 331 334 335 334 334 334 335 333 333 334 336 336 335 334 334 333 333 332 333 333 333 335 336 332 336 335 335 330 333
325 328 329 329 333 332 332 330 329 330 330 331 333 333 333 334 334 334 333 333 334 333 333 332 334 331 306 307 320 331 334 333
325 330 329 329 332 332 328 328 330 331 331 331 332 332 331 332 331 331 331 334 334 334 334 332 333 335 304 304 311 330 330 330
326 330 332 332 333 331 329 330 330 330 330 330 331 329 329 329 329 330 333 333 335 335 334 334 334 329 305 304 309 330 327 326
333 333 334 332 332 328 329 329 330 329 328 330 329 329 328 329 328 331 334 334 334 335 333 334 334 331 304 304 318 326 324 322
331 333 334 334 332 330 329 329 329 327 328 329 330 329 327 328 330 331 334 334 333 331 333 335 320 330 302 305 318 326 323 322
334 334 333 333 331 330 329 330 327 330 331 331 330 331 330 331 332 334 332 332 332 333 332 334 331 327 321 304 309 326 323 321
334 332 332 334 331 329 328 329 331 330 330 330 331 332 331 331 332 333 332 333 332 332 332 331 329 330 306 304 304 310 313 323
334 331 332 332 330 329 329 331 330 331 330 331 332 332 331 333 334 334 334 335 331 331 330 327 326 325 317 299 300 302 307 322
332 330 328 327 328 330 331 332 330 331 330 331 333 332 331 333 333 333 335 335 331 330 328 327 327 323 321 320 319 318 307 314
330 327 325 325 328 329 331 332 332 331 331 332 333 331 332 333 335 331 335 335 327 332 331 329 328 323 323 316 318 322 324 316
331 329 325 325 327 328 330 331 332 332 331 330 329 331 331 330 330 329 297 299 298 300 301 316 327 310 300 298 300 298 300 301
327 331 330 327 326 327 329 330 331 332 330 331 329 326 330 328 330 330 328 315 296 295 298 297 304 303 296 296 297 297 298 303
320 324 328 331 329 327 329 330 330 331 332 312 329 328 330 328 328 329 328 329 327 327 301 301 295 295 294 294 296 302 316 316
315 317 321 322 323 322 327 329 330 330 331 329 330 329 330 326 327 329 328 328 329 329 324 309 298 292 292 294 299 323 322 323
312 311 314 318 319 321 323 329 331 331 331 313 317 331 331 330 329 325 327 327 328 330 329 327 317 313 318 316 325 325 327 327
305 305 307 311 314 320 320 325 330 328 328 330 312 331 330 330 329 328 325 325 325 327 330 326 305 329 329 327 328 330 330 330
301 303 302 305 307 317 319 319 325 331 329 328 328 327 328 329 330 331 330 327 325 324 327 322 294 327 330 330 330 331 332 333
Wind_Speed
3 7 11 12 13 14 15 15 15 15 15 15 14 14 13 13 12 11 10 10 10 10 9 8 6 6 6 6 4 6 4 8
2 8 9 12 13 14 15 15 15 15 15 14 13 12 12 11 11 11 10 10 10 8 6 6 4 5 1 3 6 6 7 7
3 6 7 12 15 15 15 14 14 13 14 13 12 11 11 11 11 11 10 9 9 8 6 5 4 3 2 2 3 6 5 4
5 9 11 13 15 15 14 14 13 13 14 13 12 11 11 11 10 10 10 9 8 8 6 5 4 4 5 5 7 4 6 6
9 12 13 13 15 15 14 14 14 13 13 12 11 11 11 11 10 10 10 8 8 7 6 5 4 6 5 2 4 4 2 4
11 12 14 12 15 15 14 14 13 13 12 10 9 10 11 10 10 11 8 8 7 6 5 5 5 6 5 2 0 6 6 5
14 14 17 16 16 15 15 14 13 12 11 10 9 10 10 11 11 10 7 7 5 6 5 4 6 7 4 3 5 7 6 6
13 16 17 16 16 15 15 13 12 10 10 10 10 11 11 11 11 9 7 7 6 5 6 6 6 6 4 4 5 4 7 6
14 17 16 16 16 15 14 12 10 7 10 11 10 10 10 9 8 6 7 7 7 6 6 6 5 4 6 4 5 5 6 6
16 16 16 16 16 15 14 12 7 11 11 12 11 10 8 8 8 7 8 7 7 7 6 6 5 5 8 6 6 9 7 8
15 16 18 16 15 14 14 10 12 12 12 12 10 9 7 7 6 7 7 7 6 7 6 6 6 4 4 6 8 10 9 10
14 17 17 16 15 15 14 12 12 11 12 10 9 7 7 5 6 5 5 6 5 6 5 6 7 5 5 6 6 9 12 10
15 15 16 17 16 15 14 13 14 12 13 9 9 6 6 6 5 5 3 5 3 2 5 6 8 6 6 9 8 7 10 10
13 15 16 17 17 14 13 13 12 13 11 10 7 8 7 6 7 7 13 11 11 11 12 7 7 13 13 10 11 11 15 12
7 5 14 16 16 14 13 13 13 13 10 10 8 5 6 5 6 7 7 6 12 13 11 11 9 13 12 11 13 14 14 8
14 9 8 9 12 10 12 13 13 12 10 5 8 6 6 7 5 7 7 8 7 7 12 10 9 12 13 14 15 10 6 4
14 11 10 10 12 7 2 9 11 11 8 8 5 6 5 6 6 5 5 7 9 9 8 6 9 11 9 9 14 9 8 6
14 10 10 10 12 9 5 2 9 8 6 10 1 5 7 6 6 6 5 6 6 8 8 9 8 6 7 7 8 6 9 8
12 14 12 12 12 10 8 7 5 8 7 8 1 5 6 6 6 5 6 6 5 6 7 11 13 10 10 11 10 10 9 9
12 16 14 13 14 12 10 8 7 1 4 7 7 7 6 5 4 5 5 5 5 6 7 9 9 9 8 8 8 7 7 7
Wind_Direction
113 158 142 135 131 127 124 124 122 120 120 121 122 123 124 125 126 131 133 137 140 146 152 164 175 192 209 227 243 200 202 244
165 149 142 138 131 128 127 125 123 126 123 123 123 126 128 130 132 136 140 143 147 152 167 164 157 196 225 220 200 210 214 209
163 138 140 139 131 131 128 125 123 125 124 124 125 129 133 138 139 142 142 150 157 157 151 135 165 144 101 310 188 168 166 229
185 151 154 143 140 136 131 127 127 128 126 125 130 135 137 140 144 145 151 148 155 141 129 119 112 79 59 352 325 146 191 200
192 166 160 156 145 135 137 134 132 133 132 135 136 142 143 146 151 155 154 154 142 145 118 115 87 71 58 31 302 95 133 140
189 176 162 159 142 145 136 144 145 139 140 136 139 151 142 146 150 148 151 140 155 128 128 96 75 72 61 96 189 111 100 96
187 166 164 159 150 148 149 151 150 145 143 136 154 138 148 149 153 149 147 148 148 148 114 99 78 90 78 83 86 115 94 92
177 166 155 155 149 156 156 151 152 146 142 150 144 143 137 146 151 162 147 157 164 148 115 87 67 110 96 89 122 103 115 118
169 156 155 155 152 159 160 161 151 146 138 136 142 140 145 146 153 146 163 185 144 136 126 95 97 95 103 86 115 122 120 115
164 154 151 154 155 165 165 158 139 130 137 142 133 137 152 142 164 169 177 172 168 160 149 134 103 98 45 71 79 95 127 117
158 152 150 153 160 166 160 149 150 145 134 132 137 151 140 136 166 170 164 176 178 181 178 134 124 105 78 79 93 101 104 110
157 148 150 153 161 166 163 151 145 164 130 134 134 147 136 156 159 166 154 173 167 190 163 135 117 120 118 120 117 112 99 99
150 148 152 151 157 166 155 168 154 158 145 143 145 141 154 144 94 48 106 89 30 241 142 142 134 144 148 143 139 141 139 124
154 148 144 151 157 164 151 165 161 151 154 160 152 151 150 148 138 123 51 45 37 31 38 36 82 109 120 109 122 115 119 155
82 125 160 154 155 160 166 160 160 160 171 143 150 160 143 147 156 142 128 81 70 47 33 38 80 123 119 122 127 134 149 180
70 71 129 155 151 154 162 162 162 163 155 143 157 162 155 146 173 158 135 146 140 132 59 46 74 120 131 129 129 129 156 212
84 67 93 103 104 93 342 158 168 159 163 165 193 149 162 114 146 173 153 134 134 123 128 101 80 75 78 131 160 156 176 182
87 77 60 64 75 61 59 223 168 158 136 58 3 158 138 178 153 159 147 140 140 143 156 138 139 151 151 165 194 185 187 193
87 73 55 43 33 36 39 20 267 170 168 143 308 185 158 192 173 161 154 165 164 154 150 141 162 184 169 175 197 192 198 192
64 64 40 32 19 4 33 20 333 247 198 153 182 195 167 174 181 182 175 173 173 168 143 133 169 234 169 176 195 205 207 214